����������;��������(kVARh)
2017-10-30 00:00;0
2017-10-30 00:15;0
2017-10-30 00:30;0
2017-10-30 00:45;0
2017-10-30 01:00;0,25
2017-10-30 01:15;0,35
2017-10-30 01:30;0
2017-10-30 01:45;0,15
2017-10-30 02:00;0,05
2017-10-30 02:15;0
2017-10-30 02:30;0,45
2017-10-30 02:45;0,5
2017-10-30 03:00;0,35
2017-10-30 03:15;0
2017-10-30 03:30;0
2017-10-30 03:45;0,25
2017-10-30 04:00;0,7
2017-10-30 04:15;0
2017-10-30 04:30;0,2
2017-10-30 04:45;0,05
2017-10-30 05:00;0,3
2017-10-30 05:15;0
2017-10-30 05:30;0
2017-10-30 05:45;0
2017-10-30 06:00;1,6
2017-10-30 06:15;0
2017-10-30 06:30;0,05
2017-10-30 06:45;0,25
2017-10-30 07:00;0,25
2017-10-30 07:15;0,45
2017-10-30 07:30;0
2017-10-30 07:45;0,05
2017-10-30 08:00;2,4
2017-10-30 08:15;6,95
2017-10-30 08:30;9,05
2017-10-30 08:45;14,55
2017-10-30 09:00;20,2
2017-10-30 09:15;22,2
2017-10-30 09:30;22,9
2017-10-30 09:45;25,9
2017-10-30 10:00;26,4
2017-10-30 10:15;27
2017-10-30 10:30;28,1
2017-10-30 10:45;27
2017-10-30 11:00;30,05
2017-10-30 11:15;30,7
2017-10-30 11:30;32,45
2017-10-30 11:45;34,2
2017-10-30 12:00;32,15
2017-10-30 12:15;31,95
2017-10-30 12:30;31,65
2017-10-30 12:45;32,9
2017-10-30 13:00;33,4
2017-10-30 13:15;33,05
2017-10-30 13:30;33,3
2017-10-30 13:45;32,85
2017-10-30 14:00;33,3
2017-10-30 14:15;33,35
2017-10-30 14:30;32,5
2017-10-30 14:45;31,05
2017-10-30 15:00;29,05
2017-10-30 15:15;28
2017-10-30 15:30;29,6
2017-10-30 15:45;28,45
2017-10-30 16:00;28,2
2017-10-30 16:15;29,55
2017-10-30 16:30;28,7
2017-10-30 16:45;27
2017-10-30 17:00;27,5
2017-10-30 17:15;28,8
2017-10-30 17:30;28,7
2017-10-30 17:45;25,05
2017-10-30 18:00;24,65
2017-10-30 18:15;24,4
2017-10-30 18:30;23,65
2017-10-30 18:45;25,15
2017-10-30 19:00;26,8
2017-10-30 19:15;24,6
2017-10-30 19:30;21,2
2017-10-30 19:45;20
2017-10-30 20:00;19,65
2017-10-30 20:15;16,4
2017-10-30 20:30;15,9
2017-10-30 20:45;15,45
2017-10-30 21:00;14,1
2017-10-30 21:15;14,75
2017-10-30 21:30;12,45
2017-10-30 21:45;11,3
2017-10-30 22:00;10,1
2017-10-30 22:15;13,1
2017-10-30 22:30;14,2
2017-10-30 22:45;14,5
2017-10-30 23:00;15,35
2017-10-30 23:15;11,85
2017-10-30 23:30;10,55
2017-10-30 23:45;7,75
2017-10-31 00:00;6,05
2017-10-31 00:15;4,45
2017-10-31 00:30;3,35
2017-10-31 00:45;4,7
2017-10-31 01:00;4,8
2017-10-31 01:15;4,85
2017-10-31 01:30;6,75
2017-10-31 01:45;4,2
2017-10-31 02:00;4,45
2017-10-31 02:15;4,6
2017-10-31 02:30;4,1
2017-10-31 02:45;4,9
2017-10-31 03:00;3,1
2017-10-31 03:15;4,5
2017-10-31 03:30;3,75
2017-10-31 03:45;3,6
2017-10-31 04:00;4,75
2017-10-31 04:15;1,55
2017-10-31 04:30;2,45
2017-10-31 04:45;1,2
2017-10-31 05:00;2,05
2017-10-31 05:15;2,3
2017-10-31 05:30;2,35
2017-10-31 05:45;1,8
2017-10-31 06:00;3,5
2017-10-31 06:15;2,9
2017-10-31 06:30;4,35
2017-10-31 06:45;7,1
2017-10-31 07:00;8,35
2017-10-31 07:15;7,3
2017-10-31 07:30;7,1
2017-10-31 07:45;12,45
2017-10-31 08:00;15,95
2017-10-31 08:15;14,25
2017-10-31 08:30;15,5
2017-10-31 08:45;19
2017-10-31 09:00;24,1
2017-10-31 09:15;26,05
2017-10-31 09:30;25,6
2017-10-31 09:45;30
2017-10-31 10:00;32,3
2017-10-31 10:15;30,9
2017-10-31 10:30;32
2017-10-31 10:45;34,2
2017-10-31 11:00;36,85
2017-10-31 11:15;40,15
2017-10-31 11:30;44,1
2017-10-31 11:45;44,8
2017-10-31 12:00;44,4
2017-10-31 12:15;44,6
2017-10-31 12:30;47,65
2017-10-31 12:45;49,3
2017-10-31 13:00;48,95
2017-10-31 13:15;45,8
2017-10-31 13:30;47,55
2017-10-31 13:45;44,6
2017-10-31 14:00;43,2
2017-10-31 14:15;47,15
2017-10-31 14:30;48,05
2017-10-31 14:45;48,55
2017-10-31 15:00;47,1
2017-10-31 15:15;46,1
2017-10-31 15:30;46,1
2017-10-31 15:45;42,75
2017-10-31 16:00;41,05
2017-10-31 16:15;37,85
2017-10-31 16:30;36,35
2017-10-31 16:45;37
2017-10-31 17:00;35,6
2017-10-31 17:15;35,65
2017-10-31 17:30;30,75
2017-10-31 17:45;26,85
2017-10-31 18:00;28,3
2017-10-31 18:15;26,85
2017-10-31 18:30;26,8
2017-10-31 18:45;25,5
2017-10-31 19:00;23,9
2017-10-31 19:15;22,2
2017-10-31 19:30;18,4
2017-10-31 19:45;18,5
2017-10-31 20:00;16,95
2017-10-31 20:15;14,25
2017-10-31 20:30;15,55
2017-10-31 20:45;15,5
2017-10-31 21:00;15,55
2017-10-31 21:15;14,7
2017-10-31 21:30;12,7
2017-10-31 21:45;12,1
2017-10-31 22:00;13,2
2017-10-31 22:15;15
2017-10-31 22:30;15,2
2017-10-31 22:45;16,2
2017-10-31 23:00;21,15
2017-10-31 23:15;21,15
2017-10-31 23:30;21,8
2017-10-31 23:45;23,9
2017-11-01 00:00;8,7
2017-11-01 00:15;8
2017-11-01 00:30;8,4
2017-11-01 00:45;10,3
2017-11-01 01:00;9,7
2017-11-01 01:15;0,3
2017-11-01 01:30;0
2017-11-01 01:45;0
2017-11-01 02:00;0,45
2017-11-01 02:15;0,25
2017-11-01 02:30;0,05
2017-11-01 02:45;0,45
2017-11-01 03:00;0,65
2017-11-01 03:15;0,85
2017-11-01 03:30;0,95
2017-11-01 03:45;0,75
2017-11-01 04:00;1
2017-11-01 04:15;0,1
2017-11-01 04:30;0,4
2017-11-01 04:45;0,2
2017-11-01 05:00;0,85
2017-11-01 05:15;0,05
2017-11-01 05:30;0,15
2017-11-01 05:45;0
2017-11-01 06:00;0,85
2017-11-01 06:15;0,8
2017-11-01 06:30;0,15
2017-11-01 06:45;0,15
2017-11-01 07:00;0,7
2017-11-01 07:15;0,7
2017-11-01 07:30;5,45
2017-11-01 07:45;9,3
2017-11-01 08:00;10,55
2017-11-01 08:15;7,9
2017-11-01 08:30;7,1
2017-11-01 08:45;17,8
2017-11-01 09:00;20,95
2017-11-01 09:15;23,05
2017-11-01 09:30;25,95
2017-11-01 09:45;26,35
2017-11-01 10:00;29,3
2017-11-01 10:15;30,95
2017-11-01 10:30;30,75
2017-11-01 10:45;33,7
2017-11-01 11:00;37,35
2017-11-01 11:15;40
2017-11-01 11:30;44,3
2017-11-01 11:45;42,05
2017-11-01 12:00;40,6
2017-11-01 12:15;44,8
2017-11-01 12:30;44,45
2017-11-01 12:45;42,9
2017-11-01 13:00;40,85
2017-11-01 13:15;41,3
2017-11-01 13:30;40,5
2017-11-01 13:45;39,2
2017-11-01 14:00;38,6
2017-11-01 14:15;39,45
2017-11-01 14:30;38,3
2017-11-01 14:45;40,35
2017-11-01 15:00;39
2017-11-01 15:15;37,65
2017-11-01 15:30;36,65
2017-11-01 15:45;35,3
2017-11-01 16:00;34
2017-11-01 16:15;34,4
2017-11-01 16:30;34,1
2017-11-01 16:45;32,6
2017-11-01 17:00;31,6
2017-11-01 17:15;28,65
2017-11-01 17:30;25,85
2017-11-01 17:45;26,3
2017-11-01 18:00;23,4
2017-11-01 18:15;23,3
2017-11-01 18:30;19,2
2017-11-01 18:45;18,05
2017-11-01 19:00;17,9
2017-11-01 19:15;15,35
2017-11-01 19:30;16,9
2017-11-01 19:45;16,5
2017-11-01 20:00;18,05
2017-11-01 20:15;15,75
2017-11-01 20:30;13,9
2017-11-01 20:45;15
2017-11-01 21:00;13,35
2017-11-01 21:15;15
2017-11-01 21:30;17,75
2017-11-01 21:45;18,45
2017-11-01 22:00;16,4
2017-11-01 22:15;14,2
2017-11-01 22:30;17,65
2017-11-01 22:45;20,35
2017-11-01 23:00;13,8
2017-11-01 23:15;12,95
2017-11-01 23:30;11,7
2017-11-01 23:45;5,2
2017-11-02 00:00;5,35
2017-11-02 00:15;1,85
2017-11-02 00:30;3
2017-11-02 00:45;2,8
2017-11-02 01:00;2,25
2017-11-02 01:15;3,6
2017-11-02 01:30;3,3
2017-11-02 01:45;3,15
2017-11-02 02:00;4,45
2017-11-02 02:15;3,95
2017-11-02 02:30;6,1
2017-11-02 02:45;3,45
2017-11-02 03:00;3,75
2017-11-02 03:15;5,1
2017-11-02 03:30;4,9
2017-11-02 03:45;4,1
2017-11-02 04:00;5,7
2017-11-02 04:15;3,9
2017-11-02 04:30;5,2
2017-11-02 04:45;4,15
2017-11-02 05:00;4,1
2017-11-02 05:15;4,5
2017-11-02 05:30;2,95
2017-11-02 05:45;1,7
2017-11-02 06:00;3
2017-11-02 06:15;2,05
2017-11-02 06:30;2,2
2017-11-02 06:45;2,15
2017-11-02 07:00;1,3
2017-11-02 07:15;5,1
2017-11-02 07:30;11,7
2017-11-02 07:45;12,05
2017-11-02 08:00;12,75
2017-11-02 08:15;11,95
2017-11-02 08:30;14,4
2017-11-02 08:45;17,75
2017-11-02 09:00;20,1
2017-11-02 09:15;23,45
2017-11-02 09:30;21,7
2017-11-02 09:45;24,7
2017-11-02 10:00;25,2
2017-11-02 10:15;25,3
2017-11-02 10:30;27,75
2017-11-02 10:45;27
2017-11-02 11:00;30,1
2017-11-02 11:15;32,85
2017-11-02 11:30;35,05
2017-11-02 11:45;35,15
2017-11-02 12:00;32
2017-11-02 12:15;33,8
2017-11-02 12:30;34,75
2017-11-02 12:45;37,3
2017-11-02 13:00;34,05
2017-11-02 13:15;31,05
2017-11-02 13:30;32,05
2017-11-02 13:45;31,2
2017-11-02 14:00;30,45
2017-11-02 14:15;33,3
2017-11-02 14:30;33,35
2017-11-02 14:45;34,25
2017-11-02 15:00;31,3
2017-11-02 15:15;30,85
2017-11-02 15:30;31
2017-11-02 15:45;31,8
2017-11-02 16:00;32,3
2017-11-02 16:15;32
2017-11-02 16:30;32,25
2017-11-02 16:45;29,6
2017-11-02 17:00;28,15
2017-11-02 17:15;23,9
2017-11-02 17:30;21,7
2017-11-02 17:45;18,65
2017-11-02 18:00;13,7
2017-11-02 18:15;12,7
2017-11-02 18:30;10,95
2017-11-02 18:45;9,6
2017-11-02 19:00;9,05
2017-11-02 19:15;5,3
2017-11-02 19:30;4,35
2017-11-02 19:45;13,65
2017-11-02 20:00;12
2017-11-02 20:15;15,3
2017-11-02 20:30;14,7
2017-11-02 20:45;15
2017-11-02 21:00;15,7
2017-11-02 21:15;11,5
2017-11-02 21:30;9,65
2017-11-02 21:45;11,95
2017-11-02 22:00;11,05
2017-11-02 22:15;12,65
2017-11-02 22:30;11
2017-11-02 22:45;11,3
2017-11-02 23:00;13,45
2017-11-02 23:15;12,65
2017-11-02 23:30;13,9
2017-11-02 23:45;11,2
2017-11-03 00:00;11,75
2017-11-03 00:15;14,55
2017-11-03 00:30;8,6
2017-11-03 00:45;6,3
2017-11-03 01:00;8,35
2017-11-03 01:15;2,65
2017-11-03 01:30;2,45
2017-11-03 01:45;1,65
2017-11-03 02:00;1,75
2017-11-03 02:15;3,7
2017-11-03 02:30;2,3
2017-11-03 02:45;2,7
2017-11-03 03:00;4
2017-11-03 03:15;4,25
2017-11-03 03:30;5,25
2017-11-03 03:45;4,25
2017-11-03 04:00;3
2017-11-03 04:15;4,85
2017-11-03 04:30;3,4
2017-11-03 04:45;3,4
2017-11-03 05:00;4
2017-11-03 05:15;3,05
2017-11-03 05:30;3,15
2017-11-03 05:45;2,2
2017-11-03 06:00;2,75
2017-11-03 06:15;4,45
2017-11-03 06:30;1,75
2017-11-03 06:45;3,25
2017-11-03 07:00;0,9
2017-11-03 07:15;0,45
2017-11-03 07:30;1,05
2017-11-03 07:45;6,5
2017-11-03 08:00;7,45
2017-11-03 08:15;10,45
2017-11-03 08:30;11,95
2017-11-03 08:45;16,8
2017-11-03 09:00;18,3
2017-11-03 09:15;20,75
2017-11-03 09:30;20,5
2017-11-03 09:45;21,25
2017-11-03 10:00;24,35
2017-11-03 10:15;26,2
2017-11-03 10:30;24,6
2017-11-03 10:45;25,45
2017-11-03 11:00;27,05
2017-11-03 11:15;23,8
2017-11-03 11:30;24,3
2017-11-03 11:45;23,9
2017-11-03 12:00;23,4
2017-11-03 12:15;23,15
2017-11-03 12:30;22,4
2017-11-03 12:45;21,25
2017-11-03 13:00;22,8
2017-11-03 13:15;22,2
2017-11-03 13:30;21,95
2017-11-03 13:45;23,75
2017-11-03 14:00;23,55
2017-11-03 14:15;24,4
2017-11-03 14:30;23,85
2017-11-03 14:45;24,25
2017-11-03 15:00;23,9
2017-11-03 15:15;20,75
2017-11-03 15:30;21,4
2017-11-03 15:45;23,15
2017-11-03 16:00;19
2017-11-03 16:15;9,85
2017-11-03 16:30;8,8
2017-11-03 16:45;6,7
2017-11-03 17:00;5,95
2017-11-03 17:15;5,05
2017-11-03 17:30;3,3
2017-11-03 17:45;3,7
2017-11-03 18:00;2,1
2017-11-03 18:15;4,45
2017-11-03 18:30;3,55
2017-11-03 18:45;3,65
2017-11-03 19:00;3,35
2017-11-03 19:15;4,45
2017-11-03 19:30;3,4
2017-11-03 19:45;8,5
2017-11-03 20:00;7,7
2017-11-03 20:15;8,45
2017-11-03 20:30;9
2017-11-03 20:45;8,65
2017-11-03 21:00;7,85
2017-11-03 21:15;10,1
2017-11-03 21:30;11,25
2017-11-03 21:45;6,85
2017-11-03 22:00;6,85
2017-11-03 22:15;4,2
2017-11-03 22:30;2,5
2017-11-03 22:45;3,25
2017-11-03 23:00;1,9
2017-11-03 23:15;0,9
2017-11-03 23:30;0,15
2017-11-03 23:45;0
2017-11-04 00:00;0
2017-11-04 00:15;0
2017-11-04 00:30;0,1
2017-11-04 00:45;0
2017-11-04 01:00;0
2017-11-04 01:15;0
2017-11-04 01:30;0,2
2017-11-04 01:45;0
2017-11-04 02:00;0
2017-11-04 02:15;0
2017-11-04 02:30;0,3
2017-11-04 02:45;0
2017-11-04 03:00;0
2017-11-04 03:15;0
2017-11-04 03:30;0,15
2017-11-04 03:45;0,15
2017-11-04 04:00;0
2017-11-04 04:15;0
2017-11-04 04:30;0,5
2017-11-04 04:45;0,3
2017-11-04 05:00;0
2017-11-04 05:15;0
2017-11-04 05:30;0,3
2017-11-04 05:45;0
2017-11-04 06:00;0
2017-11-04 06:15;0,1
2017-11-04 06:30;0,1
2017-11-04 06:45;0
2017-11-04 07:00;0,05
2017-11-04 07:15;0
2017-11-04 07:30;0,05
2017-11-04 07:45;0
2017-11-04 08:00;0
2017-11-04 08:15;0
2017-11-04 08:30;0
2017-11-04 08:45;2,95
2017-11-04 09:00;3,1
2017-11-04 09:15;1,8
2017-11-04 09:30;0,75
2017-11-04 09:45;0,65
2017-11-04 10:00;0,4
2017-11-04 10:15;0,6
2017-11-04 10:30;0,05
2017-11-04 10:45;0,15
2017-11-04 11:00;2,85
2017-11-04 11:15;26,9
2017-11-04 11:30;18,65
2017-11-04 11:45;0,35
2017-11-04 12:00;2,95
2017-11-04 12:15;6,15
2017-11-04 12:30;0,9
2017-11-04 12:45;3,1
2017-11-04 13:00;0,05
2017-11-04 13:15;4,2
2017-11-04 13:30;2,85
2017-11-04 13:45;1,2
2017-11-04 14:00;0,4
2017-11-04 14:15;0,2
2017-11-04 14:30;6,2
2017-11-04 14:45;0,9
2017-11-04 15:00;3,3
2017-11-04 15:15;1,8
2017-11-04 15:30;3,15
2017-11-04 15:45;2,55
2017-11-04 16:00;2,95
2017-11-04 16:15;4,2
2017-11-04 16:30;1,9
2017-11-04 16:45;10,25
2017-11-04 17:00;2,9
2017-11-04 17:15;4,4
2017-11-04 17:30;2,15
2017-11-04 17:45;7,05
2017-11-04 18:00;5,4
2017-11-04 18:15;3,6
2017-11-04 18:30;2,95
2017-11-04 18:45;13,15
2017-11-04 19:00;19,85
2017-11-04 19:15;3,85
2017-11-04 19:30;9,85
2017-11-04 19:45;5,3
2017-11-04 20:00;21,65
2017-11-04 20:15;9,9
2017-11-04 20:30;13,25
2017-11-04 20:45;7,5
2017-11-04 21:00;15,75
2017-11-04 21:15;10,75
2017-11-04 21:30;17,65
2017-11-04 21:45;4
2017-11-04 22:00;7,1
2017-11-04 22:15;5,25
2017-11-04 22:30;5,35
2017-11-04 22:45;8,95
2017-11-04 23:00;0,05
2017-11-04 23:15;3,4
2017-11-04 23:30;1,55
2017-11-04 23:45;2,8
2017-11-05 00:00;1,65
2017-11-05 00:15;1,2
2017-11-05 00:30;0,95
2017-11-05 00:45;0,8
2017-11-05 01:00;0
2017-11-05 01:15;0,65
2017-11-05 01:30;0,5
2017-11-05 01:45;1
2017-11-05 02:00;0,6
2017-11-05 02:15;0,75
2017-11-05 02:30;1,75
2017-11-05 02:45;0,85
2017-11-05 03:00;1,85
2017-11-05 03:15;1,4
2017-11-05 03:30;1,65
2017-11-05 03:45;2,05
2017-11-05 04:00;1,9
2017-11-05 04:15;1,6
2017-11-05 04:30;2,65
2017-11-05 04:45;1,65
2017-11-05 05:00;1,5
2017-11-05 05:15;1,9
2017-11-05 05:30;2,5
2017-11-05 05:45;2,7
2017-11-05 06:00;2,25
2017-11-05 06:15;3,45
2017-11-05 06:30;2,8
2017-11-05 06:45;3,2
2017-11-05 07:00;3,15
2017-11-05 07:15;2,8
2017-11-05 07:30;2,45
2017-11-05 07:45;2,55
2017-11-05 08:00;1,35
2017-11-05 08:15;0,4
2017-11-05 08:30;1,15
2017-11-05 08:45;0,15
2017-11-05 09:00;0
2017-11-05 09:15;0
2017-11-05 09:30;1,35
2017-11-05 09:45;0,6
2017-11-05 10:00;0,5
2017-11-05 10:15;0,15
2017-11-05 10:30;0,25
2017-11-05 10:45;0,05
2017-11-05 11:00;0,05
2017-11-05 11:15;0,05
2017-11-05 11:30;0
2017-11-05 11:45;0,3
2017-11-05 12:00;0
2017-11-05 12:15;0
2017-11-05 12:30;0
2017-11-05 12:45;0
2017-11-05 13:00;0,3
2017-11-05 13:15;0,6
2017-11-05 13:30;0,7
2017-11-05 13:45;1,6
2017-11-05 14:00;2,4
2017-11-05 14:15;4,5
2017-11-05 14:30;6,6
2017-11-05 14:45;7,65
2017-11-05 15:00;8
2017-11-05 15:15;8,45
2017-11-05 15:30;9,75
2017-11-05 15:45;10,15
2017-11-05 16:00;10,15
2017-11-05 16:15;9,05
2017-11-05 16:30;8,25
2017-11-05 16:45;6,25
2017-11-05 17:00;5,85
2017-11-05 17:15;5,95
2017-11-05 17:30;5,45
2017-11-05 17:45;3,35
2017-11-05 18:00;2,2
2017-11-05 18:15;6,35
2017-11-05 18:30;9,6
2017-11-05 18:45;9,05
2017-11-05 19:00;10,9
2017-11-05 19:15;11,5
2017-11-05 19:30;10,45
2017-11-05 19:45;10,2
2017-11-05 20:00;10
2017-11-05 20:15;8,45
2017-11-05 20:30;8,35
2017-11-05 20:45;8,35
2017-11-05 21:00;7,8
2017-11-05 21:15;9,1
2017-11-05 21:30;7,65
2017-11-05 21:45;7,3
2017-11-05 22:00;7,05
2017-11-05 22:15;2,9
2017-11-05 22:30;2,4
2017-11-05 22:45;3,8
2017-11-05 23:00;3,9
2017-11-05 23:15;0,15
2017-11-05 23:30;0,05
2017-11-05 23:45;0

